GW4439 Weather Reports


Display with metric or nautical units.
time (UTC)temp
F
wind
direction
speed
MPH
gust
MPH
rain 1hr
in
rain 24hr
in
rain mn
in
humidity
%
barometer
mb
20260506102502 63 216 2.0 3.0 0.00 0.00 0.00 79 1013.1
20260506101959 63 204 4.0 6.0 0.00 0.00 0.00 79 1013.1
20260506101455 63 230 6.0 7.0 0.00 0.00 0.00 79 1013.5
20260506100952 63 226 5.0 6.0 0.00 0.00 0.00 79 1013.4
20260506100451 63 207 3.0 4.0 0.00 0.00 0.00 79 1013.3
20260506095948 63 235 5.0 6.0 0.00 0.00 0.00 79 1013.3
20260506095447 63 176 3.0 4.0 0.00 0.00 0.00 79 1013.2
20260506094942 63 214 4.0 4.0 0.00 0.00 0.00 78 1013.3
20260506094441 63 227 3.0 3.0 0.00 0.00 0.00 78 1013.3
20260506093938 63 181 4.0 4.0 0.00 0.00 0.00 78 1013.2
20260506093436 64 227 3.0 4.0 0.00 0.00 0.00 77 1013.5
20260506092934 64 220 6.0 8.0 0.00 0.00 0.00 77 1013.3
20260506092432 64 211 5.0 7.0 0.00 0.00 0.00 77 1013.3
20260506091928 64 174 2.0 3.0 0.00 0.00 0.00 77 1013.4
20260506091426 64 198 5.0 6.0 0.00 0.00 0.00 76 1013.6
20260506090918 64 201 5.0 6.0 0.00 0.00 0.00 76 1013.5
20260506090415 64 209 6.0 7.0 0.00 0.00 0.00 76 1013.6
20260506085912 64 248 6.0 7.0 0.00 0.00 0.00 76 1013.9
20260506085409 64 205 4.0 4.0 0.00 0.00 0.00 75 1013.9
20260506084905 64 167 4.0 4.0 0.00 0.00 0.00 75 1013.8
20260506084402 64 162 4.0 4.0 0.00 0.00 0.00 75 1014.1
20260506083858 64 211 6.0 8.0 0.00 0.00 0.00 75 1014.0
20260506083356 64 189 5.0 6.0 0.00 0.00 0.00 75 1013.9
20260506082853 64 189 5.0 6.0 0.00 0.00 0.00 75 1013.8
20260506082350 64 183 2.0 3.0 0.00 0.00 0.00 75 1014.1
20260506081845 64 210 2.0 3.0 0.00 0.00 0.00 75 1014.0
20260506081344 65 201 3.0 3.0 0.00 0.00 0.00 74 1014.2
20260506080841 65 234 4.0 4.0 0.00 0.00 0.00 74 1014.0
20260506080338 65 179 2.0 3.0 0.00 0.00 0.00 74 1014.0
20260506073321 65 200 3.0 3.0 0.00 0.00 0.00 74 1014.1
20260506072818 65 168 3.0 4.0 0.00 0.00 0.00 74 1014.0
20260506072316 65 205 4.0 4.0 0.00 0.00 0.00 73 1014.3
20260506071813 65 182 2.0 3.0 0.00 0.00 0.00 73 1014.4
20260506071311 65 207 3.0 3.0 0.00 0.00 0.00 74 1014.4
20260506070807 65 191 5.0 7.0 0.00 0.00 0.00 73 1014.6
20260506070304 65 149 4.0 6.0 0.00 0.00 0.00 73 1014.4
20260506062242 65 184 2.0 2.0 0.00 0.00 0.00 74 1014.2
20260506061738 65 215 3.0 3.0 0.00 0.00 0.00 74 1014.3
20260506061236 65 159 4.0 6.0 0.00 0.00 0.00 74 1014.3
20260506060734 65 167 4.0 4.0 0.00 0.00 0.00 74 1014.2
20260506060231 65 177 2.0 2.0 0.00 0.00 0.00 74 1014.3
20260506051156 67 158 5.0 7.0 0.00 0.00 0.00 72 1014.7
20260506050654 67 229 4.0 4.0 0.00 0.00 0.00 72 1014.6
20260506050151 67 203 3.0 3.0 0.00 0.00 0.00 72 1014.6
20260506044642 67 164 6.0 8.0 0.00 0.00 0.00 71 1014.5
20260506044139 67 161 4.0 4.0 0.00 0.00 0.00 70 1014.4
20260506043636 67 215 6.0 7.0 0.00 0.00 0.00 70 1014.5
20260506043134 68 216 7.0 8.0 0.00 0.00 0.00 69 1014.3
20260506042633 68 220 5.0 7.0 0.00 0.00 0.00 69 1014.4
20260506042131 68 231 5.0 7.0 0.00 0.00 0.00 68 1014.5
20260506041629 68 184 6.0 8.0 0.00 0.00 0.00 67 1014.4
20260506041125 68 204 5.0 6.0 0.00 0.00 0.00 67 1014.4
20260506040623 68 201 4.0 4.0 0.00 0.00 0.00 66 1014.4
20260506040120 68 197 4.0 6.0 0.00 0.00 0.00 65 1014.3
20260506035616 69 187 3.0 4.0 0.00 0.00 0.00 64 1014.1
20260506035113 69 259 4.0 6.0 0.00 0.00 0.00 63 1014.1
20260506034611 69 157 3.0 3.0 0.00 0.00 0.00 63 1014.2
20260506034107 69 215 4.0 4.0 0.00 0.00 0.00 61 1014.3
20260506033605 69 201 5.0 6.0 0.00 0.00 0.00 60 1014.3
20260506033101 69 186 4.0 4.0 0.00 0.00 0.00 59 1014.2
20260506032559 69 187 4.0 4.0 0.00 0.00 0.00 58 1014.4
20260506032056 70 164 8.0 11.0 0.00 0.00 0.00 57 1014.3
20260506031553 70 177 3.0 3.0 0.00 0.00 0.00 55 1014.3
20260506031050 70 142 3.0 3.0 0.00 0.00 0.00 54 1014.3
20260506030548 71 142 3.0 4.0 0.00 0.00 0.00 53 1014.4
20260506030045 71 230 1.0 2.0 0.00 0.00 0.00 53 1014.1
20260506025542 71 194 1.0 1.0 0.00 0.00 0.00 53 1014.2
20260506025038 71 216 1.0 1.0 0.00 0.00 0.00 53 1014.0
20260506024535 71 199 0.0 1.0 0.00 0.00 0.00 53 1014.0
20260506024031 71 194 2.0 2.0 0.00 0.00 0.00 53 1013.9
20260506023528 71 218 2.0 3.0 0.00 0.00 0.00 52 1013.9
20260506023025 71 201 2.0 3.0 0.00 0.00 0.00 52 1013.8
20260506022523 71 164 2.0 3.0 0.00 0.00 0.00 52 1013.5
20260506022020 72 196 2.0 2.0 0.00 0.00 0.00 52 1013.8
20260506021517 72 206 1.0 1.0 0.00 0.00 0.00 51 1013.8
20260506021014 72 184 2.0 3.0 0.00 0.00 0.00 51 1013.7
20260506020512 72 142 2.0 2.0 0.00 0.00 0.00 51 1013.9
20260506020009 72 155 2.0 3.0 0.00 0.00 0.00 51 1014.0
20260506015507 72 219 1.0 1.0 0.00 0.00 0.00 52 1014.1
20260506015003 72 204 2.0 2.0 0.00 0.00 0.00 51 1014.1
20260506014501 73 210 1.0 2.0 0.00 0.00 0.00 50 1014.1
20260506013956 73 225 1.0 1.0 0.00 0.00 0.00 49 1014.1
20260506013455 73 195 2.0 3.0 0.00 0.00 0.00 48 1014.0
20260506012950 73 198 3.0 3.0 0.00 0.00 0.00 48 1014.1
20260506012447 73 223 1.0 2.0 0.00 0.00 0.00 48 1014.1
20260506011944 74 218 2.0 2.0 0.00 0.00 0.00 48 1013.8
20260506011442 74 225 1.0 1.0 0.00 0.00 0.00 48 1014.1
20260506010938 74 232 2.0 2.0 0.00 0.00 0.00 48 1014.2
20260506010437 74 211 2.0 2.0 0.00 0.00 0.00 48 1014.1
20260506005933 74 237 2.0 2.0 0.00 0.00 0.00 48 1013.9
20260506005431 74 201 1.0 2.0 0.00 0.00 0.00 48 1014.1
20260506004926 74 227 2.0 2.0 0.00 0.00 0.00 48 1014.1
20260506004424 74 217 2.0 3.0 0.00 0.00 0.00 47 1013.9
20260506003920 75 211 1.0 1.0 0.00 0.00 0.00 47 1014.3
20260506003416 75 224 1.0 2.0 0.00 0.00 0.00 46 1014.0
20260506002913 75 229 2.0 3.0 0.00 0.00 0.00 45 1014.0
20260506002409 75 224 1.0 2.0 0.00 0.00 0.00 46 1014.0
20260506001904 75 223 2.0 2.0 0.00 0.00 0.00 46 1013.6
20260506001402 75 231 1.0 1.0 0.00 0.00 0.00 46 1013.9
20260506000859 76 242 2.0 2.0 0.00 0.00 0.00 45 1013.5
20260506000357 76 226 2.0 3.0 0.00 0.00 0.00 44 1013.6
20260505235853 77 233 3.0 3.0 0.00 0.00 0.00 43 1013.5
20260505235351 77 220 4.0 4.0 0.00 0.00 0.00 43 1013.6
20260505234848 77 227 1.0 1.0 0.00 0.00 0.00 43 1013.6
20260505234346 78 225 3.0 4.0 0.00 0.00 0.00 42 1013.5
20260505233842 78 216 4.0 6.0 0.00 0.00 0.00 41 1013.6
20260505233340 78 253 3.0 3.0 0.00 0.00 0.00 41 1013.5
20260505232837 78 169 3.0 4.0 0.00 0.00 0.00 40 1013.6
20260505232335 79 189 3.0 4.0 0.00 0.00 0.00 40 1013.5
20260505231831 79 246 2.0 2.0 0.00 0.00 0.00 40 1013.7
20260505231329 79 233 4.0 6.0 0.00 0.00 0.00 39 1013.9
20260505230827 79 182 6.0 7.0 0.00 0.00 0.00 39 1013.8
20260505230324 79 203 5.0 6.0 0.00 0.00 0.00 39 1013.4
20260505225820 79 224 9.0 13.0 0.00 0.00 0.00 38 1013.7
20260505225318 79 167 9.0 13.0 0.00 0.00 0.00 37 1013.8
20260505224813 79 216 5.0 6.0 0.00 0.00 0.00 39 1013.6
20260505224311 80 175 7.0 8.0 0.00 0.00 0.00 38 1013.6
20260505223808 80 213 5.0 6.0 0.00 0.00 0.00 38 1013.6
20260505223305 80 257 6.0 7.0 0.00 0.00 0.00 38 1013.7
20260505222800 80 238 7.0 9.0 0.00 0.00 0.00 37 1013.6
20260505222257 80 190 7.0 10.0 0.00 0.00 0.00 37 1013.5
20260505221754 80 188 7.0 8.0 0.00 0.00 0.00 37 1013.5
20260505221251 80 228 5.0 7.0 0.00 0.00 0.00 37 1013.6
20260505220742 80 158 6.0 7.0 0.00 0.00 0.00 38 1013.4
20260505220239 80 240 6.0 7.0 0.00 0.00 0.00 37 1013.4
20260505215738 79 212 9.0 11.0 0.00 0.00 0.00 37 1013.5
20260505215235 80 165 5.0 6.0 0.00 0.00 0.00 37 1013.3
20260505214733 80 208 6.0 8.0 0.00 0.00 0.00 36 1013.3
20260505214230 80 221 6.0 7.0 0.00 0.00 0.00 37 1013.6
20260505213727 80 218 6.0 7.0 0.00 0.00 0.00 35 1013.6
20260505213224 80 220 6.0 7.0 0.00 0.00 0.00 36 1013.6
20260505212720 80 232 5.0 7.0 0.00 0.00 0.00 36 1013.7
20260505212218 80 194 5.0 10.0 0.00 0.00 0.00 36 1013.9
20260505211715 81 212 6.0 7.0 0.00 0.00 0.00 36 1013.7
20260505211212 81 251 7.0 10.0 0.00 0.00 0.00 36 1013.6
20260505210709 80 227 9.0 10.0 0.00 0.00 0.00 36 1013.7
20260505210205 79 225 7.0 9.0 0.00 0.00 0.00 37 1013.9
20260505205703 79 244 6.0 7.0 0.00 0.00 0.00 38 1014.0
20260505205201 80 221 7.0 8.0 0.00 0.00 0.00 37 1013.8
20260505204657 80 179 6.0 7.0 0.00 0.00 0.00 37 1014.1
20260505204155 80 206 5.0 6.0 0.00 0.00 0.00 36 1014.0
20260505203652 80 225 10.0 11.0 0.00 0.00 0.00 36 1013.9
20260505203148 80 235 6.0 7.0 0.00 0.00 0.00 37 1013.9
20260505202644 80 229 4.0 4.0 0.00 0.00 0.00 36 1013.9
20260505202140 80 248 9.0 9.0 0.00 0.00 0.00 36 1013.9
20260505201636 80 221 6.0 8.0 0.00 0.00 0.00 37 1014.4
20260505201134 79 220 6.0 7.0 0.00 0.00 0.00 37 1014.4
20260505200632 79 264 4.0 4.0 0.00 0.00 0.00 37 1014.5
20260505200129 80 171 6.0 7.0 0.00 0.00 0.00 37 1014.6
20260505195625 79 233 10.0 11.0 0.00 0.00 0.00 39 1014.6
20260505195123 79 230 4.0 6.0 0.00 0.00 0.00 38 1014.9
20260505194620 80 228 8.0 10.0 0.00 0.00 0.00 37 1014.7
20260505194115 79 235 7.0 9.0 0.00 0.00 0.00 38 1014.9
20260505193613 80 236 8.0 10.0 0.00 0.00 0.00 38 1014.8
20260505193109 80 232 5.0 6.0 0.00 0.00 0.00 36 1015.1
20260505192603 79 237 6.0 8.0 0.00 0.00 0.00 37 1015.2
20260505192059 79 228 12.0 15.0 0.00 0.00 0.00 35 1015.1
20260505191557 80 225 7.0 8.0 0.00 0.00 0.00 36 1014.9
20260505191055 79 243 8.0 9.0 0.00 0.00 0.00 36 1015.2
20260505190550 79 214 11.0 14.0 0.00 0.00 0.00 35 1015.1
20260505190046 80 221 6.0 8.0 0.00 0.00 0.00 34 1015.3
20260505185543 79 249 2.0 3.0 0.00 0.00 0.00 36 1015.2
20260505185039 80 224 8.0 9.0 0.00 0.00 0.00 36 1015.1
20260505184536 79 245 4.0 4.0 0.00 0.00 0.00 35 1015.4
20260505184033 79 183 3.0 6.0 0.00 0.00 0.00 37 1015.3
20260505183529 78 167 5.0 7.0 0.00 0.00 0.00 37 1015.4
20260505183027 79 203 8.0 9.0 0.00 0.00 0.00 36 1015.7
20260505182523 80 219 8.0 9.0 0.00 0.00 0.00 36 1015.8
20260505182020 78 226 5.0 6.0 0.00 0.00 0.00 37 1015.9
20260505181517 77 210 5.0 7.0 0.00 0.00 0.00 38 1016.1
20260505181014 78 239 7.0 9.0 0.00 0.00 0.00 38 1016.2
20260505180509 79 197 4.0 6.0 0.00 0.00 0.00 37 1016.1
20260505180008 78 188 9.0 10.0 0.00 0.00 0.00 38 1016.3
20260505175502 77 235 6.0 7.0 0.00 0.00 0.00 37 1016.2
20260505174959 78 254 6.0 8.0 0.00 0.00 0.00 37 1016.3
20260505174457 79 257 7.0 8.0 0.00 0.00 0.00 36 1016.5
20260505173952 79 230 7.0 8.0 0.00 0.00 0.00 36 1016.4
20260505173449 78 197 7.0 8.0 0.00 0.00 0.00 36 1016.3
20260505172946 78 249 6.0 8.0 0.00 0.00 0.00 36 1016.2
20260505172445 77 212 7.0 8.0 0.00 0.00 0.00 35 1016.4
20260505171944 77 229 10.0 11.0 0.00 0.00 0.00 36 1016.2
20260505171441 77 147 6.0 7.0 0.00 0.00 0.00 37 1016.1
20260505170937 77 224 4.0 4.0 0.00 0.00 0.00 38 1016.2
20260505170434 76 214 10.0 10.0 0.00 0.00 0.00 38 1016.0
20260505165930 77 235 8.0 11.0 0.00 0.00 0.00 38 1016.0
20260505165426 76 244 4.0 4.0 0.00 0.00 0.00 37 1016.4
20260505164921 77 216 9.0 10.0 0.00 0.00 0.00 40 1016.4
20260505164413 77 232 8.0 11.0 0.00 0.00 0.00 41 1016.6
20260505163911 76 179 12.0 16.0 0.00 0.00 0.00 40 1016.4
20260505163410 76 221 13.0 15.0 0.00 0.00 0.00 39 1016.4
20260505162908 76 209 9.0 9.0 0.00 0.00 0.00 44 1016.6
20260505162403 75 220 8.0 9.0 0.00 0.00 0.00 45 1016.6
20260505161900 75 255 4.0 6.0 0.00 0.00 0.00 43 1017.0
20260505161357 76 223 6.0 8.0 0.00 0.00 0.00 42 1016.8
20260505160854 75 231 4.0 4.0 0.00 0.00 0.00 42 1017.0
20260505160353 75 197 5.0 7.0 0.00 0.00 0.00 41 1017.0
20260505153332 74 182 3.0 4.0 0.00 0.00 0.00 51 1016.9
20260505152829 74 237 3.0 3.0 0.00 0.00 0.00 54 1017.3
20260505152326 73 249 2.0 3.0 0.00 0.00 0.00 54 1017.2
20260505151825 72 252 2.0 2.0 0.00 0.00 0.00 54 1017.3
20260505151322 71 245 5.0 7.0 0.00 0.00 0.00 55 1017.3
20260505150819 72 255 6.0 8.0 0.00 0.00 0.00 55 1017.2
20260505150316 72 251 6.0 8.0 0.00 0.00 0.00 55 1017.3
20260505140240 68 222 6.0 7.0 0.00 0.00 0.00 69 1016.8
20260505130204 63 214 6.0 8.0 0.00 0.00 0.00 78 1016.5
20260505124654 61 198 4.0 6.0 0.00 0.00 0.00 80 1016.6
20260505124151 61 220 5.0 6.0 0.00 0.00 0.00 80 1016.6
20260505123648 60 199 1.0 1.0 0.00 0.00 0.00 81 1016.7
20260505123145 59 214 2.0 3.0 0.00 0.00 0.00 82 1016.5
20260505122641 59 192 3.0 3.0 0.00 0.00 0.00 82 1016.4
20260505122138 59 225 2.0 2.0 0.00 0.00 0.00 83 1016.4
20260505121634 58 226 2.0 2.0 0.00 0.00 0.00 83 1016.5
20260505121131 58 240 2.0 3.0 0.00 0.00 0.00 83 1016.4
20260505120627 58 237 2.0 2.0 0.00 0.00 0.00 83 1016.2
20260505120123 59 245 0.0 0.0 0.00 0.00 0.00 80 1016.2
20260505115617 59 218 0.0 1.0 0.00 0.00 0.00 81 1016.1
20260505115115 59 231 0.0 0.0 0.00 0.00 0.00 79 1016.0
20260505114612 56 234 0.0 0.0 0.00 0.00 0.00 86 1016.1
20260505114108 55 239 0.0 0.0 0.00 0.00 0.00 87 1016.1
20260505113605 54 239 0.0 0.0 0.00 0.00 0.00 89 1016.0
20260505113101 55 254 0.0 0.0 0.00 0.00 0.00 92 1016.1
20260505112558 52 254 0.0 0.0 0.00 0.00 0.00 94 1016.1
20260505112056 50 255 0.0 0.0 0.00 0.00 0.00 94 1016.1
20260505111555 50 254 0.0 0.0 0.00 0.00 0.00 95 1016.1
20260505111051 50 254 0.0 0.0 0.00 0.00 0.00 95 1015.9
20260505110548 50 254 0.0 0.0 0.00 0.00 0.00 95 1016.0